Regional Weather Roundup
Issued by NWS Charleston, SC

Current Version | Previous Version | Graphics & Text | Print | Product List | Glossary On
Versions: 1 2 3 4 5 6 7 8 9 10 11 12 13 14 15 16 17 18 19 20 21 22 23 24 25 26 27 28 29 30 31 32 33 34 35 36 37 38 39 40 41 42 43 44 45 46 47 48 49 50
000
ASUS42 KCHS 132010
RWRCHS
REGIONAL WEATHER ROUNDUP
NATIONAL WEATHER SERVICE CHARLESTON SC
400 PM EDT SUN JUL 13 2014

NOTE: "FAIR" INDICATES FEW OR NO CLOUDS BELOW 12,000 FEET WITH NO
SIGNIFICANT WEATHER AND/OR OBSTRUCTIONS TO VISIBILITY.

NOT ALL STATIONS ARE QUALITY CONTROLLED BY THE NATIONAL
WEATHER SERVICE. USE DATA WITH CAUTION...ESPECIALLY
DEWPOINT OBSERVATIONS.

SCZ027-030-031-034>040-042>050-132100-
...SOUTH CAROLINA...

CITY           SKY/WX    TMP DP  RH WIND       PRES   REMARKS
N CHARLESTON   CLOUDY    84  73  69 SE7       30.10F HX  90
WATERFRONT PRK   N/A     82 N/A N/A E3          N/A
FORT JOHNSON   NOT AVBL
MOUNT PLEASANT FAIR      81  75  83 S3        30.10F
JOHNS ISLAND   PTCLDY    81  64  57 CALM      30.11F
PINOPOLIS        N/A     82  75  78 SE3       30.02F
MONCKS CORNER    N/A     81  77  89 CALM      30.09F
SUMMERVILLE    FAIR      81  73  78 E5        30.10F
BEAUFORT MCAS  PTSUNNY   86  72  62 S3        30.10F HX  92
BEAUFORT ARPT  FAIR      82  73  74 E5        30.09F
HILTON HEAD IS PTSUNNY   81  72  74 E3        30.11F
GEORGETOWN     NOT AVBL
WALTERBORO     MOCLDY    86  68  54 SE5       30.09F
ORANGEBURG     MOSUNNY   91  66  43 CALM      30.07F HX  93
BARNWELL       FAIR      91  68  46 SE5       30.07F HX  95
AIKEN          FAIR      91  70  49 SE6       30.10F HX  97
MANNING        FAIR      88  68  51 S9        30.08F HX  91
KINGSTREE      NOT AVBL
COLUMBIA       PTSUNNY   94  68  42 SE10      30.05F HX  98
SUMTER         MOSUNNY   90  69  49 S5        30.05F HAZE    HX  94
FLORENCE       MOSUNNY   91  69  48 S7        30.06F HX  96
MYRTLE BEACH   MOSUNNY   84  73  70 SE10      30.11S HX  91
N MYRTLE BEACH MOSUNNY   84  74  71 S10       30.09F HX  91

$$

GAZ063-065-086>088-099>101-113>116-118-119-134-136>141-150-132100-
...GEORGIA...

CITY           SKY/WX    TMP DP  RH WIND       PRES   REMARKS
SAVANNAH ARPT  PTSUNNY   86  71  60 CALM      30.09  HX  91
HUNTER AAF     PTSUNNY   87  76  70 SE8       30.07F HX  97
FORT STEWART   PTSUNNY   87  73  64 E8        30.07F HX  94
STATESBORO     NOT AVBL
SYLVANIA       CLEAR     91  72  53 W7        30.08F HX  98
CLAXTON        FAIR      91  72  52 NW6       30.07F HX  98
THOMSON        MOSUNNY   93  70  47 W3        30.11F HX  98
AUGUSTA-BUSH   MOSUNNY   92  66  42 MISG      30.05F HX  94
AUGUSTA-DANIEL PTSUNNY   91  66  43 VRB7      30.07F HX  93
SWAINSBORO     FAIR      91  72  52 CALM      30.08F HX  98
VIDALIA          N/A     90  70  51 CALM      30.08F HX  95
ALMA           SUNNY     91  69  48 CALM      30.07F HX  96
WAYCROSS       SUNNY     94  74  53 W8        30.08F HX 104
JESUP          NOT AVBL
BRUNSWICK      PTSUNNY   88  73  62 CALM      30.10F HX  96
SAINT SIMONS   PTSUNNY   83  74  74 SE12      30.11F

$$

SCZ027-028-034-036>038-045-046-048>050-GAZ119-141-132100-
...LAKE AND SUPPLEMENTAL COASTAL OBSERVATIONS...

STATION/POSITION TIME  TEMP    WIND        PRES    WAVE   SWELL
                       AIR SEA DIR/SP/G            HT/PER HT/PER/DIR
                 (UTC) (F)     (DEG/KT/KT) (MB)    (FT/S) (FT/S/D)
UPR LAKE MARION  NOT AVBL
WINYAH BAY       1900   80     150/  6     1019.0F
LAKE MURRAY      1900   91     200/  3/  3 1017.6F
ACE BASIN NERRS  1900   78        CALM     1020.0S
FORT PULASKI     2000   81 78   90/ 10/ 13   N/A
SAPELO ISLAND    1900   86      90/  7     1020.0F

$$

ANZ835-935-AMZ111-154-330-350-352-354-374-450-454-472-132100-
...C-MAN AND BUOY OBSERVATIONS...

STATION/POSITION TIME  TEMP    WIND        PRES    WAVE   SWELL
                       AIR SEA DIR/SP/G            HT/PER HT/PER/DIR
                 (UTC) (F)     (DEG/KT/KT) (MB)    (FT/S) (FT/S/D)
FOLLY BEACH CMAN 1900   79      90/  3/  4 1020.2F
BUOY 41004       2000   79 82  150/  8/ 10 1019.1F   2/ 7   2/ 7
BUOY 41008       2000   80 85  120/  8/ 10 1019.8F   2/ 7   2/110/ 7
5E ST. MARYS GA  2000      83                N/A     2/ 8
FRYING PAN BUOY  NOT AVBL
BUOY 41025       2000          VRB  6/  8  1019.6F   2/ 7   2/140/ 7
CAPE LOOKOUT NC  1900   81     170/  9/ 12 1019.8F
BUOY 41002       1935   82 87  170/  2/  4 1021.4F   2/ 8   2/140/ 8
BUOY 41010       2000   83 85  110/  4/  6 1020.6R   3/ 8   3/130/ 8
BUOY 41012       NOT AVBL
ST AUGUSTINE FL  2000   79     120/  4/  5 1020.1F
CAPERS NEARSHORE 1900   81     160/  6/  8   N/A
FRIPP NEARSHORE  1900   81     100/  4/  6   N/A


$$



USA.gov is the U.S. government's official web portal to all federal, state and local government web resources and services.